GFSSGP_con_mucape_159.txt.gz
CAPE
0 0 0 0 0 0 0 0 0 0 0 0 0 0 0 0 0 0 0 0 3 199 493 594 682 876 766 768 577 440 340 120 11 2 15 28 13 2 0 18 12 14 13 14 20 12 5 21 46
0 0 0 0 0 0 0 0 0 0 0 0 0 0 0 0 0 0 0 0 68 268 429 482 495 585 621 732 609 591 378 54 22 17 14 21 3 5 27 12 14 11 8 12 16 8 27 40 34
0 0 0 0 0 0 0 0 0 0 0 0 0 0 0 0 0 0 0 15 146 313 331 404 410 703 695 700 606 527 370 193 13 42 29 11 1 3 7 4 4 13 12 21 18 25 45 39 45
0 0 0 0 0 0 0 0 0 0 0 0 0 0 0 0 0 0 0 63 141 215 239 298 415 548 617 526 459 360 284 279 59 14 93 18 1 0 28 16 2 4 5 16 27 31 37 14 24
0 0 0 0 0 0 0 0 0 0 0 0 0 0 0 0 0 0 13 59 59 149 194 268 238 344 355 485 327 192 98 64 95 44 166 42 19 28 32 14 19 10 9 8 19 19 4 0 4
0 0 0 0 0 0 0 0 0 0 0 0 0 0 0 0 0 4 27 46 56 110 151 198 163 160 186 184 135 51 61 17 27 28 97 52 37 41 40 22 24 9 4 6 8 0 0 0 0
0 0 0 0 0 0 0 0 0 0 0 0 0 0 0 0 0 20 23 26 43 97 137 156 95 105 61 33 19 1 0 1 24 12 29 52 45 47 47 35 33 9 12 7 9 0 0 0 0
0 0 0 0 0 0 0 0 0 0 0 0 0 0 0 0 0 20 28 30 22 57 87 95 73 58 14 22 0 0 0 0 0 0 6 10 15 28 26 11 24 25 11 7 0 0 0 0 0
0 0 0 0 0 0 0 0 0 0 0 0 0 0 0 0 1 35 42 29 32 18 30 45 47 31 0 0 0 0 0 0 0 0 0 0 2 24 17 7 11 31 25 17 0 0 0 0 0
0 0 0 0 0 0 0 0 0 0 0 0 0 0 0 0 0 36 49 45 47 61 23 10 3 0 0 0 0 0 0 0 0 0 0 0 0 0 7 5 4 18 14 26 3 0 0 0 0
0 0 0 0 0 0 0 0 0 0 0 0 0 0 0 0 0 0 0 30 49 43 31 0 28 1 0 0 0 0 0 0 0 0 0 0 0 0 0 1 4 27 13 22 16 1 0 0 0
0 0 0 0 0 0 0 0 0 0 0 0 0 0 0 0 0 0 0 0 0 0 0 0 0 8 0 0 0 0 0 0 0 0 0 0 0 0 0 0 0 0 3 7 7 0 0 0 0
0 0 0 0 0 0 0 0 0 0 0 0 0 0 0 0 0 0 0 0 0 0 0 0 0 0 0 0 0 0 0 0 0 0 0 0 0 0 0 0 0 0 0 0 0 0 0 0 0
0 0 0 0 0 0 0 0 0 0 0 0 0 0 0 0 0 0 0 0 0 0 0 0 0 0 0 0 0 0 0 0 0 0 0 0 0 0 0 0 0 0 0 0 0 0 0 0 0
0 0 0 0 0 0 0 0 0 0 0 0 0 0 0 0 0 0 0 0 0 0 0 0 0 0 0 0 0 0 0 0 0 0 0 0 0 0 0 0 0 0 0 0 0 0 0 0 0
0 0 0 0 0 0 0 0 0 0 0 0 0 0 0 0 0 0 0 0 0 0 0 0 0 0 0 0 0 0 0 0 0 0 0 0 0 0 0 0 0 0 0 0 0 0 0 0 0
0 0 0 0 0 0 0 0 0 0 0 0 0 0 0 0 0 0 0 0 0 0 0 0 0 0 0 0 0 0 0 0 0 0 0 0 0 0 0 0 0 0 0 0 0 0 0 0 0
0 0 0 0 0 0 0 0 0 0 0 0 0 0 0 0 0 0 0 0 0 0 0 0 0 0 0 0 0 1 0 0 0 0 0 0 0 0 0 0 0 0 0 0 0 0 0 0 0
0 0 0 0 0 0 0 0 0 0 0 0 0 0 0 0 0 0 0 0 0 0 0 0 0 0 0 0 0 5 2 2 2 3 0 0 0 10 13 0 0 0 0 0 0 0 0 0 0
0 0 0 0 0 0 0 0 0 0 0 0 0 0 0 0 0 0 0 0 0 0 0 0 0 0 0 0 0 0 0 0 1 1 0 3 0 10 21 41 30 15 5 11 0 0 0 0 0
0 0 0 0 0 0 0 0 0 0 0 0 0 0 0 0 0 0 0 0 0 0 0 0 0 0 0 0 0 0 0 0 0 0 0 0 0 0 7 32 48 33 35 26 25 9 5 0 0
0 0 0 0 0 0 0 0 0 0 0 0 0 0 0 0 0 0 0 0 0 0 0 0 0 0 0 0 0 0 0 0 0 0 0 0 0 0 0 3 20 23 28 30 25 23 29 18 0
0 0 0 0 0 0 0 0 0 0 0 0 0 0 0 0 0 0 0 0 0 0 0 0 0 0 0 0 0 0 0 0 0 0 0 0 0 0 0 0 7 23 24 39 39 15 20 29 25
5 0 0 0 0 0 0 0 0 0 0 0 0 0 0 0 0 0 0 0 0 0 0 0 0 0 0 0 0 1 13 16 16 15 27 27 32 37 39 40 33 18 31 34 44 62 55 29 10
2 0 0 0 0 0 0 0 0 0 0 0 0 0 0 0 0 0 0 0 0 0 0 0 0 0 0 0 0 0 0 6 28 40 50 62 63 63 88 106 114 107 97 187 169 75 82 95 92
0 0 0 0 0 0 0 0 0 0 0 0 0 0 0 0 0 0 0 0 0 0 0 0 0 0 0 0 0 0 0 0 0 0 13 32 93 112 113 155 134 169 267 167 115 154 178 214 167
0 0 2 0 0 0 0 0 0 0 0 0 0 0 0 0 0 0 0 0 0 0 0 0 0 0 0 0 0 0 0 0 0 0 0 0 0 9 112 199 200 167 231 176 267 170 122 184 77
0 0 0 0 0 0 0 0 0 0 0 0 0 0 0 0 0 0 0 0 0 0 0 0 0 0 0 0 0 0 0 0 0 0 0 0 0 0 0 0 46 158 218 195 229 262 162 71 32
0 0 0 0 0 0 0 0 0 0 0 0 0 0 0 0 0 0 0 0 0 0 0 0 0 0 0 0 0 0 0 0 0 0 0 0 0 0 0 0 0 0 1 265 351 299 272 213 100
0 0 0 0 0 0 0 0 0 0 0 0 0 0 0 0 0 0 0 0 0 0 0 0 0 0 0 0 0 0 0 0 0 0 0 0 0 0 0 0 0 0 0 0 7 348 605 282 434

GFSSGP_con_mucape_162.txt.gz
CAPE
0 0 0 0 0 0 0 0 0 0 0 0 0 0 0 0 0 0 49 56 68 253 468 572 587 803 618 658 281 236 127 30 4 16 45 29 8 5 21 11 15 14 18 15 13 6 5 38 28
0 0 0 0 0 0 0 0 0 0 0 0 0 0 0 0 0 0 37 77 125 269 434 467 382 546 521 423 249 237 112 76 8 6 44 26 0 3 11 10 12 14 12 12 8 9 18 26 26
0 0 0 0 0 0 0 0 0 0 0 0 0 0 0 0 0 0 11 123 166 261 392 481 361 508 512 399 274 234 224 12 20 44 31 30 11 18 12 4 13 12 20 35 12 23 21 27 22
0 0 0 0 0 0 0 0 0 0 0 0 0 0 0 0 0 4 46 144 202 272 400 246 432 716 561 457 303 122 103 17 12 52 52 28 13 0 18 9 11 4 7 8 20 18 20 23 23
0 0 0 0 0 0 0 0 0 0 0 0 0 0 0 0 21 16 163 124 222 303 396 474 298 563 683 416 291 226 82 37 4 0 58 33 13 6 22 10 4 15 6 9 7 19 0 2 8
0 0 0 0 0 0 0 0 0 0 0 0 0 0 0 0 36 90 173 159 133 257 399 436 153 158 294 442 306 138 93 53 15 18 82 43 31 28 22 19 13 9 7 8 4 15 0 0 0
0 0 0 0 0 0 0 0 0 0 0 0 0 0 0 20 18 137 218 178 176 203 341 406 362 105 75 51 34 15 43 20 18 0 21 54 48 40 44 40 39 8 5 6 11 0 0 0 0
0 0 0 0 0 0 0 0 0 0 0 0 0 0 0 0 56 129 160 202 220 234 245 287 329 278 207 139 0 0 0 0 0 0 0 0 0 20 23 19 29 35 30 11 16 0 0 0 0
0 0 0 0 0 0 0 0 0 0 0 0 0 0 0 0 36 151 194 210 213 151 198 257 267 276 228 146 2 0 0 0 0 0 0 0 0 5 11 12 16 53 40 33 15 0 0 0 0
0 0 0 0 0 0 0 0 0 0 0 0 0 0 0 0 82 155 211 209 189 145 60 137 178 178 152 54 3 2 4 1 1 0 1 0 1 1 2 1 2 18 22 39 38 10 0 0 0
0 0 0 0 0 0 0 0 0 0 0 0 0 0 0 0 0 8 8 36 50 114 140 62 70 69 121 86 33 22 11 7 4 1 0 1 1 1 0 10 4 6 5 17 25 27 5 1 0
0 0 0 0 0 0 0 0 0 0 0 0 0 0 0 0 0 0 0 0 0 12 44 76 131 30 4 102 56 46 31 7 5 1 0 0 0 2 2 4 12 11 11 15 25 21 14 5 0
0 0 0 0 0 0 0 0 0 0 0 0 0 0 0 0 0 0 0 0 0 0 0 0 7 126 30 5 74 52 54 14 5 3 0 0 0 0 0 0 2 12 12 10 10 16 15 10 2
0 0 0 0 0 0 0 0 0 0 0 0 0 0 0 0 0 0 0 0 0 0 0 0 0 0 12 66 10 29 7 3 8 6 0 0 0 0 0 0 0 0 2 9 10 9 11 12 8
0 0 0 0 0 0 0 0 0 0 0 0 0 0 0 0 0 0 0 0 0 0 0 0 0 0 0 0 4 17 10 8 8 7 5 0 0 0 0 0 0 0 0 0 6 10 14 18 13
0 0 0 0 0 0 0 0 0 0 0 0 0 0 0 0 0 0 0 0 0 0 0 0 0 0 0 0 0 0 5 13 11 11 9 0 0 0 0 0 0 0 0 0 0 0 0 0 0
1 0 0 0 0 0 0 0 0 0 0 0 0 0 0 0 0 0 0 0 0 0 0 0 0 0 0 0 0 0 2 10 4 4 5 4 0 0 0 0 0 0 0 0 0 0 0 0 0
0 0 0 0 0 0 0 0 0 0 0 0 0 0 0 0 0 0 0 0 0 0 0 0 0 0 0 0 0 0 0 5 3 4 4 3 2 0 0 0 1 4 0 0 0 0 0 0 0
0 0 0 0 0 0 0 0 0 0 0 0 0 0 0 0 0 0 0 0 0 0 0 0 0 0 0 0 0 0 0 0 2 8 2 6 4 3 1 0 9 20 28 31 0 0 0 0 0
0 0 0 0 0 0 0 0 0 0 0 0 0 0 0 0 0 0 0 0 0 0 0 0 0 0 0 0 0 0 0 0 0 0 7 4 4 9 26 3 1 4 11 38 47 38 11 0 0
0 0 0 0 0 0 0 0 0 0 0 0 0 0 0 0 0 0 0 0 0 0 0 0 0 0 0 0 0 0 0 0 1 4 7 7 4 6 3 26 14 7 0 0 10 34 53 44 27
0 0 0 0 0 0 0 0 0 0 0 0 0 0 0 0 0 0 0 0 0 0 0 0 0 0 0 0 0 0 0 0 0 3 12 19 20 8 5 5 0 28 7 4 0 7 20 42 50
0 0 0 0 0 0 0 0 0 0 0 0 0 0 0 0 0 0 0 0 0 0 0 0 0 0 0 0 0 5 6 12 9 17 29 45 73 66 63 38 39 36 73 12 20 30 53 70 85
0 0 0 0 0 0 0 0 0 0 0 0 0 0 0 0 0 0 0 0 0 0 0 0 0 0 0 0 0 0 0 0 0 0 35 63 79 123 88 78 100 98 46 69 33 79 105 101 107
37 0 0 0 0 0 0 0 0 0 0 0 0 0 0 0 0 0 0 0 0 0 0 0 0 0 0 0 0 0 0 0 0 0 9 37 43 131 72 86 149 185 142 67 122 167 194 271 185
0 0 0 0 0 0 0 0 0 0 0 0 0 0 0 0 0 0 0 0 0 0 0 0 0 0 0 0 0 0 0 0 0 0 0 0 0 0 33 52 87 219 199 161 94 269 202 106 100
0 0 1 0 0 0 0 0 0 0 0 0 0 0 0 0 0 0 0 0 0 0 0 0 0 0 0 0 0 0 0 0 0 0 0 0 0 0 0 0 0 15 51 143 259 144 231 186 145
0 0 0 0 0 0 0 0 0 0 0 0 0 0 0 0 0 0 0 0 0 0 0 0 0 0 0 0 0 0 0 0 0 0 0 0 0 0 0 0 0 0 0 0 1 61 313 333 360
0 0 0 0 0 0 0 0 0 0 0 0 0 0 0 0 0 0 0 0 0 0 0 0 0 0 0 0 0 0 0 0 0 0 0 0 0 0 0 0 0 0 0 0 0 0 0 43 186
21 0 3 0 0 0 0 0 0 0 0 0 0 0 0 0 0 0 0 0 0 0 0 0 0 0 0 0 0 0 0 0 0 0 0 0 0 0 0 0 0 0 0 0 0 0 0 0 0

GFSSGP_con_mucape_165.txt.gz
CAPE
0 0 0 0 1 2 0 0 0 0 0 0 0 0 0 0 0 32 94 96 118 311 429 453 678 661 474 240 175 53 13 6 0 49 46 27 1 10 0 0 19 6 22 6 9 4 32 19 2
0 0 0 0 4 16 1 0 0 0 0 0 0 0 0 0 0 4 79 116 183 400 353 440 352 644 453 291 161 140 137 0 0 46 65 34 6 23 7 7 4 4 8 12 3 9 27 24 24
0 0 0 0 0 47 0 0 0 0 0 0 0 0 0 0 0 4 149 132 216 312 348 432 326 670 471 242 154 103 5 0 0 15 45 24 11 32 12 5 4 4 8 8 4 27 25 35 22
0 4 0 2 0 0 0 0 0 0 0 0 0 0 0 0 0 23 65 184 250 271 355 177 481 753 477 278 129 102 55 0 0 33 27 26 5 8 8 4 10 5 4 19 21 31 18 19 19
0 0 0 0 0 0 0 0 0 0 0 0 0 0 0 0 9 89 184 144 305 332 364 387 399 640 691 357 241 106 75 13 0 0 11 21 17 2 1 11 4 10 1 7 13 34 20 25 22
0 0 1 2 0 0 0 0 0 0 0 0 0 0 0 0 3 142 210 166 182 282 363 565 174 287 466 379 420 266 83 93 18 0 20 21 10 20 15 12 11 5 5 9 6 27 6 5 10
0 0 20 5 0 0 0 0 0 0 0 0 0 0 0 0 47 226 246 186 205 239 228 254 300 118 61 121 72 15 8 24 35 11 135 33 12 11 23 22 31 12 4 6 6 16 0 0 0
0 0 0 0 0 0 0 0 0 0 0 0 0 1 0 21 144 259 259 221 210 220 226 303 532 397 391 127 0 0 0 0 0 0 0 25 0 0 6 1 11 16 13 7 0 2 0 0 0
0 0 0 0 0 0 0 0 0 0 0 0 0 0 0 8 123 214 265 256 215 182 209 176 169 652 372 310 117 2 0 0 0 0 0 0 0 7 3 0 2 23 24 18 7 0 0 0 0
0 0 0 0 0 0 0 0 0 0 0 0 0 0 0 34 101 131 138 117 219 211 258 238 216 181 211 225 95 48 11 4 3 2 2 0 0 0 9 7 0 3 16 26 31 15 0 0 0
0 0 0 0 0 0 0 0 0 0 0 0 0 0 0 0 0 0 0 0 0 5 138 179 227 239 212 145 256 94 63 53 18 10 9 9 2 2 0 9 6 3 0 7 14 16 1 0 0
0 0 0 0 0 0 0 0 0 0 0 0 0 0 0 0 0 0 0 0 0 0 0 0 110 157 202 241 120 123 368 57 16 11 7 11 6 6 2 1 4 25 20 15 22 12 17 6 1
0 0 0 0 0 0 0 0 0 0 0 0 0 0 0 0 0 0 0 0 0 0 0 0 0 19 149 29 213 145 154 186 49 7 8 5 5 7 2 2 0 1 9 14 18 18 18 18 8
0 0 0 0 0 0 0 0 0 0 0 0 0 0 0 0 0 0 0 0 0 0 0 0 0 0 0 159 56 33 92 83 48 9 6 9 5 5 3 3 2 0 0 2 7 9 16 15 12
0 0 0 0 0 0 0 0 0 0 0 0 0 0 0 0 0 0 0 0 0 0 0 0 0 0 0 0 0 61 15 16 42 52 151 4 7 3 0 3 3 2 1 0 0 1 0 1 12
0 0 0 0 0 0 0 0 0 0 0 0 0 0 0 0 0 0 0 0 0 0 0 0 0 0 0 0 0 0 0 30 5 324 37 6 7 7 7 7 4 5 5 3 3 3 2 1 0
0 0 0 0 0 0 0 0 0 0 0 0 0 0 0 0 0 0 0 0 0 0 0 0 0 0 0 0 0 0 0 0 12 4 64 5 4 13 7 11 11 10 0 0 0 4 5 4 0
0 0 0 0 0 0 0 0 0 0 0 0 0 0 0 0 0 0 0 0 0 0 0 0 0 0 0 0 0 0 0 0 0 1 3 3 3 8 30 9 4 9 4 0 0 0 0 0 7
0 0 0 0 0 0 0 0 0 0 0 0 0 0 0 0 0 0 0 0 0 0 0 0 0 0 0 0 0 0 0 0 0 0 4 6 7 7 33 34 8 10 9 6 5 2 1 1 0
0 0 0 0 0 0 0 0 0 0 0 0 0 0 0 0 0 0 0 0 0 0 0 0 0 0 0 0 0 0 0 0 0 0 2 4 5 7 7 16 8 23 23 27 49 18 12 59 59
0 0 0 0 0 0 0 0 0 0 0 0 0 0 0 0 0 0 0 0 0 0 0 0 0 0 0 0 0 0 0 0 0 0 4 10 10 11 15 13 30 20 41 62 62 61 80 14 31
0 0 0 0 0 0 0 0 0 0 0 0 0 0 0 0 0 0 0 0 0 0 0 0 0 0 0 0 0 0 0 0 0 2 9 16 7 14 7 27 44 31 13 9 7 105 17 41 38
0 14 10 0 0 0 0 0 0 0 0 0 0 0 0 0 0 0 0 0 0 0 0 0 0 0 0 0 0 0 1 1 2 2 2 7 40 81 58 87 44 22 13 129 98 19 43 89 75
28 28 22 21 0 0 0 0 0 0 0 0 0 0 0 0 0 0 0 0 0 0 0 0 0 0 0 0 0 0 0 0 0 0 0 2 37 91 83 24 99 95 113 106 72 94 104 129 43
51 0 0 0 0 0 0 0 0 0 0 0 0 0 0 0 0 0 0 0 0 0 0 0 0 0 0 0 0 0 0 0 0 0 0 0 0 0 2 5 14 49 130 57 175 138 121 119 97
0 0 0 0 0 0 0 0 0 0 0 0 0 0 0 0 0 0 0 0 0 0 0 0 0 0 0 0 0 0 0 0 0 0 0 0 0 0 0 0 0 0 2 21 58 75 161 167 171
0 0 1 0 0 0 0 0 0 0 0 0 0 0 0 0 0 0 0 0 0 0 0 0 0 0 0 0 0 0 0 0 0 0 0 0 0 0 0 0 0 0 0 0 0 0 13 24 94
0 7 0 0 0 0 0 0 0 0 0 0 0 0 0 0 0 0 0 0 0 0 0 0 0 0 0 0 0 0 0 0 0 0 0 0 0 0 0 0 0 0 0 0 0 0 0 0 0
0 0 0 0 0 0 0 0 0 0 0 0 0 0 0 0 0 0 0 0 0 0 0 0 0 0 0 0 0 0 0 0 0 0 0 0 0 0 0 0 0 0 0 0 0 0 0 0 0
0 0 0 0 0 0 0 0 0 0 0 0 0 0 0 0 0 0 0 0 0 0 0 0 0 0 0 0 0 0 0 0 0 0 0 0 0 0 0 0 0 0 0 0 0 0 0 0 0

GFSSGP_con_mucape_168.txt.gz
CAPE
0 0 0 0 0 0 0 0 0 0 0 0 0 0 0 0 0 90 82 69 213 266 278 565 775 745 483 206 186 119 46 0 0 56 44 24 15 12 7 13 8 18 3 5 7 30 54 37 55
0 0 0 0 0 0 0 0 0 0 0 0 0 0 0 0 0 9 60 75 319 301 217 281 550 633 609 430 311 227 56 0 0 41 17 4 2 18 7 8 12 4 24 4 11 35 35 40 32
0 0 0 0 4 0 0 0 0 0 0 0 0 0 0 1 0 48 43 58 255 185 356 103 345 732 646 405 328 231 155 15 0 14 0 1 0 10 9 10 4 6 11 4 22 54 52 44 32
0 3 0 0 1 0 0 0 0 0 0 0 0 0 0 0 0 47 71 93 177 292 348 126 491 747 644 420 278 204 58 13 17 14 8 0 0 0 18 9 7 12 12 15 36 29 36 42 39
0 0 13 7 0 0 0 0 0 0 0 0 0 0 0 0 2 39 74 105 195 447 285 230 448 642 633 467 223 187 145 2 7 32 28 20 8 1 4 1 4 10 2 11 17 31 14 21 35
0 0 4 5 0 0 0 0 0 0 0 0 0 0 0 0 24 115 36 66 102 327 386 183 249 317 387 405 312 180 98 156 25 0 28 38 37 31 6 11 3 6 0 4 5 9 6 1 10
0 0 11 17 0 0 0 0 0 0 0 0 0 0 0 0 72 139 65 37 47 212 549 498 107 82 126 99 128 23 0 3 10 0 21 30 17 24 37 16 31 12 0 0 0 0 0 0 0
0 0 0 1 0 0 0 0 0 0 0 0 0 0 0 0 105 161 84 77 76 87 35 109 230 441 25 1 0 0 0 0 0 0 0 0 0 0 0 0 9 20 15 19 7 0 0 0 0
0 0 0 0 0 0 0 0 0 0 0 0 0 0 0 0 88 136 132 120 75 82 80 70 61 386 344 50 36 13 0 0 0 0 0 0 0 0 0 0 0 9 13 22 19 8 0 0 0
0 0 0 1 0 0 0 0 0 0 0 0 0 0 0 0 91 137 141 150 125 131 131 113 109 51 17 7 8 129 2 0 0 0 0 0 0 0 0 0 0 0 2 13 24 30 4 0 0
0 0 0 0 0 0 0 0 0 0 0 0 0 0 0 0 0 0 0 0 15 81 111 155 125 134 86 2 26 340 295 2 3 5 1 0 0 0 0 0 0 0 0 0 0 1 3 0 0
0 0 0 0 0 0 0 0 0 0 0 0 0 0 0 0 0 0 0 0 0 0 0 9 90 99 103 116 63 3 335 3 100 22 5 1 0 0 0 0 0 0 0 0 0 0 0 0 0
0 0 0 0 0 0 0 0 0 0 0 0 0 0 0 0 0 0 0 0 0 0 0 0 0 10 59 66 61 36 3 47 178 18 8 4 0 0 0 0 0 0 0 0 0 0 0 0 0
0 0 0 0 0 0 0 0 0 0 0 0 0 0 0 0 0 0 0 0 0 0 0 0 0 0 0 40 49 2 15 19 6 133 199 94 1 0 0 0 0 0 0 0 0 0 0 0 0
0 0 0 0 0 0 0 0 0 0 0 0 0 0 0 0 0 0 0 0 0 0 0 0 0 0 0 0 34 69 17 0 10 2 27 198 87 2 1 0 0 0 0 0 0 0 0 0 0
0 0 0 0 0 0 0 0 0 0 0 0 0 0 0 0 0 0 0 0 0 0 0 0 0 0 0 0 0 0 0 10 0 0 0 2 16 106 5 6 2 0 0 0 0 0 0 0 0
0 0 0 0 0 0 0 0 0 0 0 0 0 0 0 0 0 0 0 0 0 0 0 0 0 0 0 0 0 0 0 0 3 9 0 0 1 31 41 17 7 23 4 4 0 0 0 0 0
0 0 0 0 0 0 0 0 0 0 0 0 0 0 0 0 0 0 0 0 0 0 0 0 0 0 0 0 0 0 0 0 0 0 18 9 7 158 12 12 73 62 25 9 27 25 10 2 7
0 0 0 0 0 0 0 0 0 0 0 0 0 0 0 0 0 0 0 0 0 0 0 0 0 0 0 0 0 0 0 0 0 0 0 0 0 5 41 23 21 20 4 8 51 7 40 71 44
0 0 0 0 0 0 0 0 0 0 0 0 0 0 0 0 0 0 0 0 0 0 0 0 0 0 0 0 0 0 0 0 0 2 8 7 8 5 10 13 15 20 29 43 25 53 48 44 78
0 0 0 0 0 0 0 0 0 0 0 0 0 0 0 0 0 0 0 0 0 0 0 0 0 0 0 0 0 0 0 0 0 0 3 6 15 8 8 8 29 27 25 12 23 40 99 70 38
0 0 0 0 0 0 0 0 0 0 0 0 0 0 0 0 0 0 0 0 0 0 0 0 0 0 0 0 0 0 0 0 0 1 6 9 10 24 20 29 23 26 28 66 58 54 25 45 93
0 0 1 0 0 0 0 0 0 0 0 0 0 0 0 0 0 0 0 0 0 0 0 0 0 0 0 0 0 0 0 0 0 0 1 11 7 7 26 15 66 29 62 42 65 44 99 71 75
17 11 16 21 0 0 0 0 0 0 0 0 0 0 0 0 0 0 0 0 0 0 0 0 0 0 0 0 0 0 0 0 0 0 0 0 0 0 4 28 40 6 28 135 63 87 103 119 144
47 10 0 0 0 0 0 0 0 0 0 0 0 0 0 0 0 0 0 0 0 0 0 0 0 0 0 0 0 0 0 0 0 0 0 0 0 0 0 0 0 0 0 0 8 35 66 132 182
21 14 0 0 0 0 0 0 0 0 0 0 0 0 0 0 0 0 0 0 0 0 0 0 0 0 0 0 0 0 0 0 0 0 0 0 0 0 0 0 0 0 0 0 0 0 1 15 18
7 0 0 0 0 0 0 0 0 0 0 0 0 0 0 0 0 0 0 0 0 0 0 0 0 0 0 0 0 0 0 0 0 0 0 0 0 0 0 0 0 0 0 0 0 0 0 0 0
14 3 0 0 0 0 0 0 0 0 0 0 0 0 0 0 0 0 0 0 0 0 0 0 0 0 0 0 0 0 0 0 0 0 0 0 0 0 0 0 0 0 0 0 0 0 0 0 0
0 0 0 0 0 0 0 0 0 0 0 0 0 0 0 0 0 0 0 0 0 0 0 0 0 0 0 0 0 0 0 0 0 0 0 0 0 0 0 0 0 0 0 0 0 0 0 0 0
0 0 0 0 0 0 0 0 0 0 0 0 0 0 0 0 0 0 0 0 0 0 0 0 0 0 0 0 0 0 0 0 0 0 0 0 0 0 0 0 0 0 0 0 0 0 0 0 0

GFSSGP_con_mucape_171.txt.gz
CAPE
0 0 0 0 0 0 0 0 0 0 0 0 0 0 0 0 11 0 91 202 175 334 578 657 623 596 208 65 76 99 4 3 70 20 0 0 0 0 0 10 41 21 14 12 44 59 49 53 72
0 0 0 0 0 0 0 0 0 0 0 0 0 0 0 0 0 0 4 274 255 236 451 495 464 625 330 179 202 159 21 0 55 21 0 0 6 0 0 1 15 17 15 6 29 53 47 54 64
0 0 0 0 0 0 0 0 0 0 0 0 0 0 0 1 5 70 10 347 269 207 266 333 386 641 471 368 345 275 92 17 38 28 13 0 3 0 7 6 7 13 1 4 25 33 26 15 13
0 7 0 0 0 0 2 0 0 0 0 0 0 0 0 0 0 29 75 613 304 358 261 129 518 733 486 465 288 105 55 13 8 26 12 17 21 7 6 3 9 5 7 3 21 17 13 13 20
0 0 0 0 0 0 0 0 0 0 0 0 0 0 0 2 31 53 111 217 347 263 239 139 407 635 611 503 185 283 96 16 8 28 29 7 7 26 5 0 6 5 0 7 12 13 0 7 9
0 0 0 0 0 0 0 0 0 0 0 0 0 0 0 50 50 83 106 343 303 299 331 136 264 312 327 341 240 114 124 78 7 0 32 22 4 9 0 0 0 2 0 4 0 16 2 1 1
0 0 0 0 0 0 0 0 0 0 0 0 0 0 0 47 124 67 85 77 298 370 336 439 101 123 130 67 46 40 4 36 26 0 0 26 8 5 8 14 11 0 0 0 0 0 0 0 0
0 0 2 0 0 0 0 0 0 0 0 0 0 0 0 73 148 99 83 60 72 39 179 103 60 32 17 0 0 0 0 0 0 0 0 0 0 0 0 0 2 8 0 0 0 0 0 0 0
0 0 0 0 0 0 0 0 0 0 0 0 0 0 4 101 167 100 95 78 67 83 89 162 119 25 6 1 1 4 0 0 0 0 0 0 0 0 0 0 0 5 8 11 13 7 0 0 0
0 0 0 0 0 0 0 0 0 0 0 0 0 13 32 106 138 123 99 90 79 80 66 64 37 0 16 20 23 6 3 0 0 0 0 0 0 0 0 0 0 0 0 0 9 11 0 0 0
0 0 0 0 0 0 0 0 0 0 0 0 0 0 33 72 115 116 137 150 129 141 118 76 71 72 58 17 0 3 69 77 2 1 0 0 0 0 0 0 0 0 0 0 0 0 0 0 0
0 0 0 0 0 0 0 0 0 0 0 0 0 0 26 18 0 0 0 0 0 0 73 136 68 57 71 67 11 3 2 49 64 34 3 2 0 0 0 0 0 0 0 0 0 0 0 0 0
0 0 0 0 0 0 0 0 0 0 0 0 0 0 0 0 0 0 0 0 0 0 0 0 59 65 64 78 58 12 0 0 15 11 25 22 3 1 0 0 0 0 0 0 0 0 0 0 0
0 0 0 0 0 0 0 0 0 0 0 0 0 0 0 0 0 0 0 0 0 0 0 0 0 0 16 57 52 35 15 19 0 0 0 63 20 2 2 0 0 0 0 0 0 0 0 0 0
0 0 0 0 0 0 0 0 0 0 0 0 0 0 0 0 0 0 0 0 0 0 0 0 0 0 0 0 20 38 38 11 2 20 0 0 4 72 7 2 1 0 0 0 0 0 0 0 0
0 0 0 0 0 0 0 0 0 0 0 0 0 0 0 0 0 0 0 0 0 0 0 0 0 0 0 0 0 3 25 37 17 0 16 5 3 5 28 59 42 6 7 2 2 0 0 0 0
0 0 0 0 0 0 0 0 0 0 0 0 0 0 0 0 0 0 0 0 0 0 0 0 0 0 0 0 0 0 0 0 8 8 8 15 21 14 13 14 20 14 8 5 6 7 3 7 6
0 0 0 0 0 0 0 0 0 0 0 0 0 0 0 0 0 0 0 0 0 0 0 0 0 0 0 0 0 0 0 0 0 0 16 27 20 34 26 25 10 32 15 11 17 5 9 6 9
0 0 0 0 0 0 0 0 0 0 0 0 0 0 0 0 0 0 0 0 0 0 0 0 0 0 0 0 0 0 0 0 0 0 0 20 36 33 0 15 10 37 44 32 47 53 74 48 37
0 0 0 0 0 0 0 0 0 0 0 0 0 0 0 0 0 0 0 0 0 0 0 0 0 0 0 0 0 0 0 0 0 0 1 23 38 39 12 4 11 8 8 12 12 7 34 42 82
0 0 0 0 0 0 0 0 0 0 0 0 0 0 0 0 0 0 0 0 0 0 0 0 0 0 0 0 0 0 0 0 0 0 0 12 24 35 6 7 21 23 12 12 25 15 54 45 60
0 0 0 0 0 0 0 0 0 0 0 0 0 0 0 0 0 0 0 0 0 0 0 0 0 0 0 0 0 0 0 0 0 0 0 4 12 16 7 17 39 36 9 23 12 43 45 41 51
0 0 0 0 0 0 0 0 0 0 0 0 0 0 0 0 0 0 0 0 0 0 0 0 0 0 0 0 0 0 0 0 0 0 0 0 0 3 9 19 36 37 35 39 46 75 63 64 81
0 0 6 7 0 0 0 0 0 0 0 0 0 0 0 0 0 0 0 0 0 0 0 0 0 0 0 0 0 0 0 0 0 0 0 0 0 0 0 0 0 0 21 0 5 23 19 70 48
20 0 0 0 0 0 0 0 0 0 0 0 0 0 0 0 0 0 0 0 0 0 0 0 0 0 0 0 0 0 0 0 0 0 0 0 0 0 0 0 0 0 0 0 0 0 0 1 6
0 0 0 0 0 0 0 0 0 0 0 0 0 0 0 0 0 0 0 0 0 0 0 0 0 0 0 0 0 0 0 0 0 0 0 0 0 0 0 0 0 0 0 0 0 0 0 0 0
0 0 0 0 0 0 0 0 0 0 0 0 0 0 0 0 0 0 0 0 0 0 0 0 0 0 0 0 0 0 0 0 0 0 0 0 0 0 0 0 0 0 0 0 0 0 0 0 0
19 15 0 0 0 0 0 0 0 0 0 0 0 0 0 0 0 0 0 0 0 0 0 0 0 0 0 0 0 0 0 0 0 0 0 0 0 0 0 0 0 0 0 0 0 0 0 0 0
0 0 0 0 0 0 0 0 0 0 0 0 0 0 0 0 0 0 0 0 0 0 0 0 0 0 0 0 0 0 0 0 0 0 0 0 0 0 0 0 0 0 0 0 0 0 0 0 0
0 0 0 0 0 0 0 0 0 0 0 0 0 0 0 0 0 0 0 0 0 0 0 0 0 0 0 0 0 0 0 0 0 0 0 0 0 0 0 0 0 0 0 0 0 0 0 0 0